Voltar ao catálogo

COSMOS 1275 DEB

AtivoPO
NORAD 13476·DEBRIS·🇷🇺 Russia

Lançado Jun 4, 1981 de Plesetsk Cosmodrome

Loading…

Próximas Passagens (próximas 24 horas)

TLE

AtualizadoSource: Space-Track

Época: Sep 13, 2026, 23:21 UTC

1 13476U 81053FW  26256.97348932  .00001022  00000-0  63246-3 0  9993
2 13476  82.7976  86.3696 0049232 331.7962 181.4103 14.03826304241850

Acompanhe COSMOS 1275 DEB em tempo real com AllMySat

Download on the App Store